星链-35521(STARLINK-35521)

导读

STARLINK-35521是美国太空探索技术公司(SpaceX)星链星座的一员,于2025年10月8日发射入轨。星链项目旨在构建全球低轨卫星互联网,为全球用户提供高速宽带接入服务。STARLINK-35521采用平板设计,搭载氪工质霍尔推进器,具备自主避撞能力,服役结束后会主动离轨再入大气层焚毁。它的入轨进一步扩充了星链星座规模,助力星链实现更完善的全球覆盖。

Basic Information
目录编号:
65916
目录名称:
STARLINK-35521
国际标识:
2025-225G
轨道中心:
EARTH
卫星名称:
星链-35521
卫星全名:
星链-35521(STARLINK-35521)
卫星状态:
在轨 (已飞行248 天)
发射日期:
2025-10-08 UTC
国别 :
美国 (US)
星等 :
--
Orbit Information
数据来源 国际轨道数据 AOE轨道数据
星历时间 2026-06-13T10:11:14+0800
11小时前
查看轨道信息
2026-06-13T06:00:00+0800
16小时前
查看轨道信息
半长轴 6853.316km 6853.306km
偏心率 0.0001446 0.0001253
轨道倾角 53.161° 53.160°
近地点辐角 81.006° 85.507°
升交点赤经 82.614° 83.426°
平近点角 279.111° 32.994°
近地点 474.188km 474.31km
远地点 476.17km 476.028km
周期 94.105分钟 94.104分钟
每日圈数 15.302124 15.302155
Detailed Information
固有亮度:
5
最大亮度:
2.5
卫星平台:
Starlink V1.0
覆盖范围:
全球
运营商:
太空探索技术公司
运营商所在国:
美国
制造商(研发单位):
太空探索技术公司
制造商所在国:
美国
使用方式:
暂无
Satellite Introduction
Starlink 计划是 SpaceX 推出的全球卫星互联网项目,通过发射低轨道卫星,为全球尤其是偏远地区提供高速、低延迟的互联网服务。自 2019 年起,Starlink 已部署数千颗卫星,旨在缩小全球数字鸿沟,推动互联网普及。该项目还为军事、航空等行业提供通信支持,带来广泛经济效益。
2D Orbit Map
3D Orbit Map
Orbit Altitude Analysis Chart
Orbit Inclination Analysis Chart
Orbit Comprehensive Analysis Chart
View Comprehensive Chart